Location: Unspecified
(0.0000°N, 0.0000°E)
Time: 00:46:21
(UTC+00:00)

STARLINK-1061 - Pass Details

Date: 16 January 2020
Orbit: 546 x 548 km, 53.1° (Epoch: 15 January)

Event Time Altitude Azimuth Distance (km) Brightness Sun altitude
Rises 19:17:52 0° 312° (NW) 2,701 7.5 -15.9°
Reaches altitude 10° 19:20:12 10° 304° (NW) 1,811 6.7 -16.4°
Maximum altitude 19:24:01 37° 236° (SW) 864 5.2 -17.3°
Drops below altitude 10° 19:27:51 10° 168° (SSE) 1,820 6.4 -18.2°
Sets 19:30:12 0° 159° (SSE) 2,715 7.2 -18.7°
